EW8929 Campdevanol ES current weather conditions

sailwx.info

Wind from 139

Air temperature 4.4° C
Dewpoint -47.3° C

Last reported at 2020-Jan-22 12:47 UTC.
Time now 2020-Jan-22 13:28 UTC

Location: N 42°13' E 002°10'.
View on Google Maps.

See reports from other nearby stations

  
Tides and Currents Weather Stations Pressure Air Temp Water Temp Dewpoint Dewpoint Depression Visibility Wind Speed Wind Dir Waves Ship Positions
date/time (UTC)wind fromknots sea level pressurealtimeterstation pressurevisibilityair tempwater tempwave heightnotes
2020-Jan-22 13:02 139 4.4
2020-Jan-22 12:47 139 4.4
2020-Jan-22 12:31 061 4.4
2020-Jan-22 12:15 061 3.9
2020-Jan-22 12:01 053 3.9
2020-Jan-22 11:45 053 3.9
2020-Jan-22 11:30 049 3.9
2020-Jan-22 11:16 124 3.9
2020-Jan-22 11:02 013 3.9
2020-Jan-22 10:47 273 3.3
2020-Jan-22 10:32 059 3.9
2020-Jan-22 10:16 225 3.9
2020-Jan-22 10:01 271 3.9
2020-Jan-22 09:46 271 3.9
2020-Jan-22 09:31 259 3.9
2020-Jan-22 09:16 248 2 gusting 5 3.9
2020-Jan-22 09:01 298 4 gusting 9 3.3
2020-Jan-22 08:45 037 2.8
2020-Jan-22 08:31 307 2.8
2020-Jan-22 08:15 262 2.8
2020-Jan-22 08:00 279 2.8
2020-Jan-22 07:45 281 2.8
2020-Jan-22 07:30 332 2.8
2020-Jan-22 07:15 258 2.8
2020-Jan-22 07:00 359 2.2
2020-Jan-22 06:45 254 2 gusting 5 2.2
2020-Jan-22 06:33 001 1.7
2020-Jan-22 06:19 266 1.7
2020-Jan-22 06:02 266 1.7
2020-Jan-22 05:47 302 1.7
2020-Jan-22 05:31 281 1.7
2020-Jan-22 05:16 023 1.7
2020-Jan-22 05:02 025 1.7
2020-Jan-22 04:45 307 1.7
2020-Jan-22 04:30 001 1.1
2020-Jan-22 04:16 006 1.7
2020-Jan-22 04:00 282 0 gusting 2 1.1
2020-Jan-22 03:45 011 1.1
2020-Jan-22 03:31 273 1.1
2020-Jan-22 03:15 355 1.7
2020-Jan-22 02:47 053 3.3
2020-Jan-22 02:32 312 3.9
2020-Jan-22 02:18 104 0 gusting 8 4.4
2020-Jan-22 02:03 072 0 gusting 7 6.1
2020-Jan-22 01:46 250 6.1
2020-Jan-22 01:31 159 1 gusting 6 5.6
2020-Jan-22 01:17 037 1 gusting 8 5.6
2020-Jan-22 01:01 026 1 gusting 9 6.1
2020-Jan-22 00:46 054 1 gusting 10 6.1
2020-Jan-22 00:30 041 6 gusting 13 6.1
2020-Jan-22 00:16 067 3 gusting 10 6.1
2020-Jan-22 00:02 054 6.1
2020-Jan-21 23:46 269 6.1
2020-Jan-21 23:30 047 2 gusting 7 6.1
2020-Jan-21 23:15 067 6.1
2020-Jan-21 23:01 084 6.1
2020-Jan-21 22:47 048 3 gusting 11 6.7
2020-Jan-21 22:32 060 2 gusting 11 6.7
2020-Jan-21 22:16 073 1 gusting 11 6.7
2020-Jan-21 22:02 143 6.1
2020-Jan-21 21:46 086 2 gusting 13 6.1
2020-Jan-21 21:32 347 6.1
2020-Jan-21 21:16 148 2 gusting 19 6.1
2020-Jan-21 21:01 023 3 gusting 16 6.1
2020-Jan-21 20:46 270 6.1
2020-Jan-21 20:30 122 1 gusting 9 5.6
2020-Jan-21 20:15 020 3 gusting 12 6.1
2020-Jan-21 20:00 213 5.6
2020-Jan-21 19:45 053 5.6
2020-Jan-21 19:30 330 5.6
2020-Jan-21 19:19 096 3 gusting 11 5.6
2020-Jan-21 19:02 120 5.6
2020-Jan-21 18:46 050 5.6
2020-Jan-21 18:31 216 0 gusting 3 5.0
2020-Jan-21 18:16 118 5.0
2020-Jan-21 18:01 123 5.0
2020-Jan-21 17:46 121 2 gusting 9 5.0
2020-Jan-21 17:31 086 5.0
2020-Jan-21 17:16 051 6 gusting 13 5.0
2020-Jan-21 17:01 045 1 gusting 8 5.0
2020-Jan-21 16:46 288 5.0
2020-Jan-21 16:30 138 4.4
2020-Jan-21 16:15 065 2 gusting 7 4.4
2020-Jan-21 16:00 148 1 gusting 9 4.4
2020-Jan-21 15:45 233 2 gusting 7 4.4
2020-Jan-21 15:33 158 5 gusting 7 4.4
2020-Jan-21 15:19 350 1 gusting 8 4.4
2020-Jan-21 15:02 248 4 gusting 10 4.4
2020-Jan-21 14:49 264 2 gusting 5 4.4
2020-Jan-21 14:31 128 4.4
2020-Jan-21 14:18 172 0 gusting 8 4.4
2020-Jan-21 14:01 143 1 gusting 7 4.4
2020-Jan-21 13:45 236 3.9
2020-Jan-21 13:32 212 3 gusting 7 3.9
2020-Jan-21 13:16 237 2 gusting 7 3.9
2020-Jan-21 13:00 255 1 gusting 8 3.9
2020-Jan-21 12:45 137 0 gusting 7 3.9
2020-Jan-21 12:30 209 1 gusting 8 3.3
2020-Jan-21 12:15 162 1 gusting 8 3.3
2020-Jan-21 12:00 226 3.9
2020-Jan-21 11:45 176 2 gusting 6 3.3
2020-Jan-21 11:30 088 3.3
2020-Jan-21 11:17 224 1 gusting 6 3.3
2020-Jan-21 11:01 166 2 gusting 6 3.3
2020-Jan-21 10:31 135 6 gusting 15 3.3
2020-Jan-21 10:17 143 2 gusting 12 3.3
2020-Jan-21 10:01 022 3.3
2020-Jan-21 09:45 198 0 gusting 6 2.8
2020-Jan-21 09:17 293 2.8
2020-Jan-21 09:03 069 1 gusting 7 2.8
2020-Jan-21 08:30 053 2.8
2020-Jan-21 08:15 131 4 gusting 9 2.2
2020-Jan-21 08:00 148 3 gusting 10 2.8
2020-Jan-21 07:30 173 3 gusting 9 2.2
2020-Jan-21 07:15 089 1.7
2020-Jan-21 07:00 197 1.7
2020-Jan-21 06:31 280 2 gusting 9 2.2
2020-Jan-21 06:15 211 0 gusting 8 1.7
2020-Jan-21 05:30 252 2 gusting 7 1.1
2020-Jan-21 05:15 233 3 gusting 9 1.1
2020-Jan-21 05:03 178 0 gusting 13 1.1
2020-Jan-21 04:47 184 1.1
2020-Jan-21 04:32 191 1.1
2020-Jan-21 04:16 178 1.1
2020-Jan-21 04:01 075 1.1
2020-Jan-21 03:45 248 4 gusting 11 1.1
2020-Jan-21 03:31 226 1.1
2020-Jan-21 03:16 359 1 gusting 7 1.1
2020-Jan-21 03:00 091 0 gusting 6 1.1
2020-Jan-21 02:46 154 4 gusting 10 1.1
2020-Jan-21 02:30 214 1 gusting 6 1.1
2020-Jan-21 02:15 207 1 gusting 9 1.1
2020-Jan-21 02:00 153 1 gusting 8 1.1
2020-Jan-21 01:45 165 2 gusting 6 1.7
2020-Jan-21 01:30 053 3 gusting 17 2.2
2020-Jan-21 01:18 165 2 gusting 14 2.8
2020-Jan-21 01:01 070 2.8
2020-Jan-21 00:48 095 2.8
2020-Jan-21 00:32 122 3.3
2020-Jan-21 00:16 214 4 gusting 16 3.9
2020-Jan-21 00:02 131 5 gusting 14 3.9
2020-Jan-20 23:47 164 5 gusting 15 3.9
2020-Jan-20 23:31 128 1 gusting 19 3.9
2020-Jan-20 23:16 065 6 gusting 15 3.9
2020-Jan-20 23:01 069 6 gusting 12 3.9
2020-Jan-20 22:46 143 8 gusting 19 4.4
2020-Jan-20 22:31 128 2 gusting 13 4.4
2020-Jan-20 22:15 134 5 gusting 11 3.9
2020-Jan-20 22:01 250 1 gusting 14 3.3
2020-Jan-20 21:46 199 1 gusting 18 3.9
2020-Jan-20 21:30 160 5 gusting 13 3.3
2020-Jan-20 21:15 211 5 gusting 22 3.3
2020-Jan-20 21:00 151 3 gusting 13 3.3
2020-Jan-20 20:45 038 4 gusting 18 3.3
2020-Jan-20 20:33 084 3.3
2020-Jan-20 20:18 310 1 gusting 13 2.8
2020-Jan-20 20:01 324 0 gusting 12 2.8
2020-Jan-20 19:48 132 2 gusting 15 3.3
2020-Jan-20 19:32 148 2 gusting 10 3.3
2020-Jan-20 19:16 162 3 gusting 14 3.3
2020-Jan-20 19:02 164 1 gusting 15 3.3
2020-Jan-20 18:46 083 2 gusting 10 3.9
2020-Jan-20 18:32 118 4 gusting 13 3.9
2020-Jan-20 18:17 096 3.9
2020-Jan-20 18:01 020 2 gusting 10 3.9
2020-Jan-20 17:46 261 3.9
2020-Jan-20 17:32 198 6 gusting 14 3.9
2020-Jan-20 17:16 104 1 gusting 7 4.4
2020-Jan-20 17:01 221 3.9
2020-Jan-20 16:47 229 0 gusting 8 4.4
2020-Jan-20 16:32 074 6 gusting 15 4.4
2020-Jan-20 16:16 070 4.4
2020-Jan-20 16:01 103 6 gusting 16 4.4
2020-Jan-20 15:47 117 0 gusting 13 4.4
2020-Jan-20 15:32 037 5.0
2020-Jan-20 15:16 139 1 gusting 14 5.6
2020-Jan-20 15:01 099 3 gusting 12 5.6
2020-Jan-20 14:47 097 7 gusting 22 6.1
2020-Jan-20 14:31 045 6 gusting 16 6.1
2020-Jan-20 14:16 074 1 gusting 13 6.1
2020-Jan-20 14:02 018 11 gusting 25 6.1
2020-Jan-20 13:49 081 6 gusting 15 6.1
2020-Jan-20 13:32 093 5 gusting 17 6.1
2020-Jan-20 13:16 064 6 gusting 19 6.1
2020-Jan-20 13:01 172 9 gusting 16 6.7